Jackson, MI

11:00 PM EDT on October 18, 2019 (GMT -0400)
Jackson County-Reynolds

Weather History for KJXN - July, 2019

Change the Weather History Date:

Thursday, July 11, 2019

  Actual Average Record
Temperature  
Mean Temperature 74 °F 71 °F  
Max Temperature 84 °F 83 °F 92 °F (1972)
Min Temperature 64 °F 60 °F 44 °F (1978)
Degree Days  
Heating Degree Days 0 0  
Month to date heating degree days 0 1  
Since 1 June heating degree days 58 56  
Since 1 July heating degree days 0 1  
Cooling Degree Days 9 7  
Month to date cooling degree days 118 75  
Year to date cooling degree days 221 238  
Since 1 June cooling degree days 211 201  
Growing Degree Days 25 (Base 50)    
Moisture  
Dew Point 64 °F    
Average Humidity 67    
Maximum Humidity 87    
Minimum Humidity 47    
Precipitation  
Precipitation 0.00 in 0.11 in 0.84 in (1962)
Month to date precipitation 1.36 1.19  
Year to date precipitation 18.08 15.06  
Sea Level Pressure  
Sea Level Pressure 29.85 in    
Wind  
Wind Speed 6 mph (West)    
Max Wind Speed 15 mph    
Max Gust Speed 24 mph    
Visibility 10 miles    
Events      
T = Trace of Precipitation, MM = Missing Value Source: NWS Daily Summary

Daily Weather History Graph

Daily Weather History Graph

Search for Another Location

Airport or City:

Astronomy

Jul. 11, 2019 Rise Set
Actual Time 6:11 AM EDT 9:14 PM EDT
Civil Twilight 5:37 AM EDT 9:48 PM EDT
Nautical Twilight 4:54 AM EDT 10:31 PM EDT
Astronomical Twilight 4:02 AM EDT 11:22 PM EDT
Moon 4:24 PM EDT (7/11) 2:25 AM EDT (7/11)
Length of Visible Light 16h 11m
Length of Day
15h 03m
Waxing Gibbous, 74% of the Moon is Illuminated
Jul 11
Waxing Gibbous
Jul 16
Full
Jul 24
Last Quarter
Jul 31
New
Aug 7
First Quarter

Hourly Weather History & Observations

Time (EDT) Temp. Heat Index Dew Point Humidity Pressure Visibility Wind Dir Wind Speed Gust Speed Precip Events Conditions
12:56 AM 78.1 °F - 73.0 °F 84% 29.83 in 10.0 mi South 8.1 mph - N/A   Clear
1:56 AM 77.0 °F - 72.0 °F 84% 29.84 in 10.0 mi SW 9.2 mph - N/A   Clear
2:56 AM 75.9 °F - 66.9 °F 74% 29.83 in 10.0 mi West 6.9 mph - N/A   Clear
3:56 AM 73.9 °F - 64.0 °F 71% 29.83 in 10.0 mi West 5.8 mph - N/A   Clear
4:56 AM 72.0 °F - 63.0 °F 73% 29.83 in 10.0 mi West 4.6 mph - N/A   Clear
5:56 AM 70.0 °F - 63.0 °F 78% 29.84 in 10.0 mi West 3.5 mph - N/A   Clear
6:56 AM 66.9 °F - 63.0 °F 87% 29.85 in 10.0 mi WSW 3.5 mph - N/A   Clear
7:56 AM 72.0 °F - 63.0 °F 73% 29.85 in 10.0 mi West 4.6 mph - N/A   Clear
8:56 AM 73.9 °F - 64.0 °F 71% 29.86 in 10.0 mi Calm Calm - N/A   Clear
9:56 AM 75.9 °F - 63.0 °F 64% 29.86 in 10.0 mi Calm Calm - N/A   Clear
10:56 AM 79.0 °F - 63.0 °F 58% 29.86 in 10.0 mi West 6.9 mph - N/A   Clear
11:56 AM 81.0 °F 82.2 °F 63.0 °F 54% 29.86 in 10.0 mi Variable 6.9 mph - N/A   Scattered Clouds
12:56 PM 81.0 °F 82.5 °F 64.0 °F 56% 29.86 in 10.0 mi West 8.1 mph - N/A   Scattered Clouds
1:56 PM 81.0 °F 82.2 °F 63.0 °F 54% 29.86 in 10.0 mi WNW 8.1 mph 18.4 mph N/A   Mostly Cloudy
2:56 PM 82.9 °F 84.4 °F 64.0 °F 53% 29.85 in 10.0 mi West 6.9 mph 18.4 mph N/A   Partly Cloudy
3:56 PM 84.0 °F 84.9 °F 63.0 °F 49% 29.83 in 10.0 mi WNW 9.2 mph 19.6 mph N/A   Scattered Clouds
4:56 PM 82.0 °F 83.0 °F 62.1 °F 51% 29.82 in 10.0 mi West 10.4 mph - N/A   Partly Cloudy
5:56 PM 82.0 °F 82.7 °F 61.0 °F 49% 29.82 in 10.0 mi West 10.4 mph 19.6 mph N/A   Mostly Cloudy
6:56 PM 81.0 °F 81.9 °F 62.1 °F 52% 29.83 in 10.0 mi WNW 9.2 mph 20.7 mph N/A   Partly Cloudy
7:56 PM 80.1 °F 81.2 °F 62.1 °F 54% 29.85 in 10.0 mi NW 6.9 mph 18.4 mph N/A   Clear
8:56 PM 75.9 °F - 62.1 °F 62% 29.87 in 10.0 mi NW 5.8 mph 18.4 mph N/A   Clear
9:56 PM 72.0 °F - 62.1 °F 71% 29.90 in 10.0 mi WNW 5.8 mph - N/A   Clear
10:56 PM 69.1 °F - 60.1 °F 73% 29.91 in 10.0 mi NW 6.9 mph - N/A   Clear
11:56 PM 66.0 °F - 57.9 °F 75% 29.91 in 10.0 mi North 5.8 mph - N/A   Clear